• en Belgique
  • Liste des pays
  • À 7 jours
  • Température de l'eau
  • Carte satellitaire
  • Carte météo
  • Widgets météo
  • user-avatar
    Se connecter

    Météo par heure à Sozopol

    Ce jour, 15 Novembre, Jeudi

    Heure Température Précipitation Vent Pression Humidité
    00:00 +9°C° 0 mm 2 m/s 763 mmHg 76%
    01:00 +9°C° 0 mm 2 m/s 763 mmHg 77%
    02:00 +9°C° 0 mm 3 m/s 763 mmHg 78%
    03:00 +7°C° 0.2 mm 4 m/s 762 mmHg 80%
    04:00 +7°C° 0.2 mm 5 m/s 762 mmHg 82%
    05:00 +7°C° 0.2 mm 5 m/s 762 mmHg 83%
    06:00 +7°C° 1.1 mm 6 m/s 762 mmHg 84%
    07:00 +5°C° 1.1 mm 7 m/s 762 mmHg 84%
    08:00 +5°C° 1.1 mm 7 m/s 762 mmHg 85%
    09:00 +6°C° 1 mm 7 m/s 762 mmHg 82%
    10:00 +6°C° 1 mm 7 m/s 763 mmHg 79%
    11:00 +8°C° 1 mm 7 m/s 763 mmHg 76%
    12:00 +8°C° 0.3 mm 7 m/s 763 mmHg 73%
    13:00 +9°C° 0.3 mm 7 m/s 763 mmHg 70%
    14:00 +9°C° 0.3 mm 7 m/s 763 mmHg 67%
    15:00 +9°C° 0.1 mm 7 m/s 763 mmHg 69%
    16:00 +8°C° 0.1 mm 7 m/s 763 mmHg 72%
    17:00 +8°C° 0.1 mm 7 m/s 763 mmHg 74%
    18:00 +8°C° 0.1 mm 7 m/s 763 mmHg 77%
    19:00 +6°C° 0.1 mm 7 m/s 763 mmHg 79%
    20:00 +6°C° 0.1 mm 7 m/s 763 mmHg 82%
    21:00 +6°C° 0.1 mm 7 m/s 763 mmHg 82%
    22:00 +5°C° 0.1 mm 7 m/s 763 mmHg 81%
    23:00 +5°C° 0.1 mm 7 m/s 763 mmHg 81%

    Demain, 16 Novembre, Vendredi

    Heure Température Précipitation Vent Pression Humidité
    00:00 +5°C° 0.1 mm 7 m/s 763 mmHg 81%
    01:00 +5°C° 0.1 mm 7 m/s 764 mmHg 82%
    02:00 +4°C° 0.1 mm 7 m/s 764 mmHg 82%
    03:00 +4°C° 0.1 mm 7 m/s 764 mmHg 83%
    04:00 +3°C° 0.1 mm 7 m/s 764 mmHg 85%
    05:00 +3°C° 0.1 mm 7 m/s 764 mmHg 87%
    06:00 +3°C° 0.1 mm 7 m/s 764 mmHg 86%
    07:00 +2°C° 0.1 mm 7 m/s 765 mmHg 86%
    08:00 +2°C° 0.1 mm 7 m/s 765 mmHg 85%
    09:00 +3°C° 0.1 mm 7 m/s 765 mmHg 80%
    10:00 +4°C° 0.1 mm 7 m/s 765 mmHg 76%
    11:00 +5°C° 0.1 mm 7 m/s 766 mmHg 71%
    12:00 +5°C° 0 mm 7 m/s 766 mmHg 69%
    13:00 +5°C° 0 mm 7 m/s 766 mmHg 67%
    14:00 +6°C° 0 mm 7 m/s 766 mmHg 65%
    15:00 +5°C° 0 mm 7 m/s 766 mmHg 68%
    16:00 +4°C° 0 mm 7 m/s 766 mmHg 70%
    17:00 +3°C° 0 mm 7 m/s 766 mmHg 72%
    18:00 +3°C° 0 mm 7 m/s 767 mmHg 74%
    19:00 +2°C° 0 mm 7 m/s 767 mmHg 75%
    20:00 +1°C° 0 mm 6 m/s 767 mmHg 77%
    21:00 +1°C° 0 mm 6 m/s 768 mmHg 78%
    22:00 +1°C° 0 mm 6 m/s 768 mmHg 79%
    23:00 +1°C° 0 mm 6 m/s 768 mmHg 80%

    Après-demain, 17 Novembre, Samedi

    Heure Température Précipitation Vent Pression Humidité
    00:00 +1°C° 0 mm 6 m/s 768 mmHg 81%
    01:00 +1°C° 0 mm 6 m/s 768 mmHg 82%
    02:00 -1°C° 0 mm 6 m/s 768 mmHg 83%
    03:00 -1°C° 0 mm 6 m/s 768 mmHg 83%
    04:00 -1°C° 0 mm 6 m/s 767 mmHg 84%
    05:00 -1°C° 0 mm 6 m/s 767 mmHg 84%
    06:00 -1°C° 0.2 mm 6 m/s 768 mmHg 84%
    07:00 -1°C° 0.2 mm 6 m/s 768 mmHg 85%
    08:00 -1°C° 0.2 mm 6 m/s 768 mmHg 85%
    09:00 +1°C° 0.2 mm 6 m/s 768 mmHg 83%
    10:00 +2°C° 0.2 mm 7 m/s 768 mmHg 81%
    11:00 +3°C° 0.2 mm 7 m/s 768 mmHg 79%
    12:00 +3°C° 0.2 mm 7 m/s 767 mmHg 80%
    13:00 +3°C° 0.2 mm 7 m/s 767 mmHg 80%
    14:00 +3°C° 0.2 mm 7 m/s 767 mmHg 81%
    15:00 +2°C° 0.2 mm 8 m/s 767 mmHg 83%
    16:00 +1°C° 0.2 mm 8 m/s 767 mmHg 84%
    17:00 +1°C° 0.2 mm 8 m/s 767 mmHg 86%
    18:00 +1°C° 0.2 mm 8 m/s 767 mmHg 86%
    19:00 +1°C° 0.2 mm 8 m/s 767 mmHg 85%
    20:00 +1°C° 0.2 mm 8 m/s 767 mmHg 84%
    21:00 +1°C° 0.2 mm 8 m/s 767 mmHg 84%
    22:00 +1°C° 0.2 mm 8 m/s 767 mmHg 84%
    23:00 0°C° 0.2 mm 8 m/s 767 mmHg 83%

    18 Novembre, Dimanche

    Heure Température Précipitation Vent Pression Humidité
    00:00 0°C° 0.1 mm 8 m/s 767 mmHg 83%
    01:00 0°C° 0.1 mm 8 m/s 766 mmHg 82%
    02:00 0°C° 0.1 mm 8 m/s 766 mmHg 82%
    03:00 0°C° 0.1 mm 8 m/s 766 mmHg 82%
    04:00 -1°C° 0.1 mm 7 m/s 766 mmHg 81%
    05:00 -1°C° 0.1 mm 7 m/s 766 mmHg 81%
    06:00 -1°C° 0.1 mm 7 m/s 765 mmHg 80%
    07:00 -1°C° 0.1 mm 7 m/s 765 mmHg 80%
    08:00 -1°C° 0.1 mm 7 m/s 765 mmHg 79%
    09:00 +1°C° 0.1 mm 6 m/s 765 mmHg 77%
    10:00 +1°C° 0.1 mm 6 m/s 765 mmHg 74%
    11:00 +2°C° 0.1 mm 6 m/s 765 mmHg 72%
    12:00 +3°C° 0 mm 6 m/s 765 mmHg 71%
    13:00 +3°C° 0 mm 6 m/s 764 mmHg 71%
    14:00 +5°C° 0 mm 5 m/s 764 mmHg 70%
    15:00 +3°C° 0 mm 5 m/s 763 mmHg 71%
    16:00 +3°C° 0 mm 5 m/s 763 mmHg 73%
    17:00 +3°C° 0 mm 5 m/s 762 mmHg 74%
    18:00 +3°C° 0 mm 5 m/s 762 mmHg 74%
    19:00 +3°C° 0 mm 5 m/s 762 mmHg 74%
    20:00 +3°C° 0 mm 5 m/s 761 mmHg 74%
    21:00 +3°C° 0 mm 5 m/s 761 mmHg 74%
    22:00 +3°C° 0 mm 5 m/s 761 mmHg 75%
    23:00 +3°C° 0 mm 5 m/s 760 mmHg 75%

    19 Novembre, Lundi

    Heure Température Précipitation Vent Pression Humidité
    00:00 +3°C° 0.1 mm 5 m/s 760 mmHg 75%
    01:00 +3°C° 0.1 mm 5 m/s 760 mmHg 76%
    02:00 +3°C° 0.1 mm 5 m/s 759 mmHg 76%
    03:00 +3°C° 0.5 mm 5 m/s 759 mmHg 77%
    04:00 +3°C° 0.5 mm 5 m/s 759 mmHg 78%
    05:00 +3°C° 0.5 mm 5 m/s 758 mmHg 79%
    06:00 +3°C° 0.7 mm 5 m/s 758 mmHg 81%
    07:00 +3°C° 0.7 mm 5 m/s 758 mmHg 82%
    08:00 +5°C° 0.7 mm 5 m/s 758 mmHg 84%
    09:00 +5°C° 0.2 mm 5 m/s 758 mmHg 84%
    10:00 +6°C° 0.2 mm 5 m/s 758 mmHg 84%
    11:00 +7°C° 0.2 mm 5 m/s 758 mmHg 84%
    12:00 +8°C° 0.1 mm 5 m/s 758 mmHg 85%
    13:00 +8°C° 0.1 mm 5 m/s 758 mmHg 85%
    14:00 +8°C° 0.1 mm 5 m/s 758 mmHg 86%
    15:00 +8°C° 0.1 mm 5 m/s 758 mmHg 88%
    16:00 +8°C° 0.1 mm 5 m/s 758 mmHg 90%
    17:00 +8°C° 0.1 mm 5 m/s 758 mmHg 92%
    18:00 +8°C° 0.1 mm 5 m/s 758 mmHg 93%
    19:00 +8°C° 0.1 mm 5 m/s 758 mmHg 94%
    20:00 +8°C° 0.1 mm 5 m/s 758 mmHg 94%
    21:00 +9°C° 0.1 mm 5 m/s 758 mmHg 95%
    22:00 +9°C° 0.1 mm 5 m/s 758 mmHg 95%
    23:00 +9°C° 0.1 mm 5 m/s 759 mmHg 95%

    20 Novembre, Mardi

    Heure Température Précipitation Vent Pression Humidité
    00:00 +10°C° 0.1 mm 4 m/s 759 mmHg 95%
    01:00 +10°C° 0.1 mm 4 m/s 759 mmHg 95%
    02:00 +10°C° 0.1 mm 4 m/s 759 mmHg 95%
    03:00 +10°C° 0.1 mm 4 m/s 759 mmHg 95%
    04:00 +10°C° 0.1 mm 4 m/s 759 mmHg 95%
    05:00 +10°C° 0.1 mm 4 m/s 759 mmHg 95%
    06:00 +10°C° 0.1 mm 4 m/s 759 mmHg 96%
    07:00 +11°C° 0.1 mm 4 m/s 760 mmHg 96%
    08:00 +10°C° 0.1 mm 5 m/s 760 mmHg 96%
    09:00 +12°C° 0.1 mm 5 m/s 760 mmHg 92%
    10:00 +13°C° 0.1 mm 5 m/s 760 mmHg 88%
    11:00 +14°C° 0.1 mm 6 m/s 759 mmHg 84%
    12:00 +14°C° 0 mm 5 m/s 759 mmHg 83%
    13:00 +15°C° 0 mm 5 m/s 759 mmHg 82%
    14:00 +15°C° 0 mm 5 m/s 758 mmHg 81%
    15:00 +15°C° 0.1 mm 5 m/s 758 mmHg 85%
    16:00 +14°C° 0.1 mm 5 m/s 758 mmHg 89%
    17:00 +14°C° 0.1 mm 5 m/s 758 mmHg 93%
    18:00 +14°C° 0.2 mm 5 m/s 758 mmHg 93%
    19:00 +14°C° 0.2 mm 5 m/s 758 mmHg 93%
    20:00 +14°C° 0.2 mm 5 m/s 757 mmHg 93%
    21:00 +14°C° 0.1 mm 5 m/s 757 mmHg 92%
    22:00 +14°C° 0.1 mm 5 m/s 757 mmHg 92%
    23:00 +14°C° 0.1 mm 5 m/s 757 mmHg 91%
    Voir plus